Regional Weather Roundup
Issued by NWS Portland, ME

Current Version | Previous Version | Text Only | Print | Product List | Glossary Off
Versions: 1 2 3 4 5 6 7 8 9 10 11 12 13 14 15 16 17 18 19 20 21 22 23 24 25 26 27 28 29 30 31 32 33 34 35 36 37 38 39 40 41 42 43 44 45 46 47 48 49 50
000 ASUS41 KGYX 211105 RWRGYX WEATHER ROUNDUP FOR MAINE AND NEW HAMPSHIRE NATIONAL WEATHER SERVICE GRAY ME 700 AM EDT MON MAY 21 2018 MEZ002-005-006-010-012-015-018-020-021-024-026-027-029-211200- MAINE CITY SKY/WX TMP DP RH WIND PRES REMARKS PORTLAND FAIR 53 50 89 W5 30.12R SANFORD FAIR 52 49 89 CALM 30.13R BAR HARBOR FAIR 55 42 61 CALM 30.06R WISCASSET FAIR 56 43 61 W3 30.11R ROCKLAND FAIR 53 44 71 W9 30.08R FRYEBURG FAIR 52 45 77 SE3 30.12R LEWISTONAUBURN FAIR 52 48 86 CALM 30.12R AUGUSTA FAIR 55 41 59 NW6 30.09R WATERVILLE FAIR 55 42 61 NW7 30.06R BANGOR FAIR 54 40 59 W8 30.06R GREENVILLE N/A 52 33 48 NW8 30.02R MILLINOCKET FAIR 53 37 54 NW5 30.04R HOULTON FAIR 49 38 65 SW6 29.98S PRESQUE ISLE FAIR 47 35 63 SW6 29.97S FRENCHVILLE FAIR 48 30 49 W9 29.92S CARIBOU FAIR 47 33 58 W9 29.95S $$ NHZ002-005-008-009-011-012-014-211200- NEW HAMPSHIRE CITY SKY/WX TMP DP RH WIND PRES REMARKS PORTSMOUTH SUNNY 55 49 81 W3 30.12R ROCHESTER FAIR 54 48 80 NW3 30.12R NASHUA FAIR 55 47 74 NW7 30.15R MANCHESTER FAIR 58 45 62 CALM 30.13R CONCORD FAIR 53 46 77 NW6 30.15R LACONIA FAIR 54 45 71 CALM 30.15R PLYMOUTH FAIR 49 45 87 CALM 30.14R BERLIN FAIR 43 41 93 CALM 30.13R WHITEFIELD FAIR 42 41 96 CALM 30.15R JAFFREY FAIR 49 46 90 CALM 30.16R KEENE FOG 47 46 97 CALM 30.18R VSB<1/4 LEBANON FOG 46 43 89 CALM 30.17R VSB 1/4 MT WASHINGTON SUNNY 32 18 55 NW37G47 N/A WCI 16 $$ VTZ005-007-008-211200- VERMONT CITY SKY/WX TMP DP RH WIND PRES REMARKS ST JOHNSBURY N/A 41 41 100 MISG 30.14R MONTPELIER FAIR 48 44 86 CALM 30.19R BURLINGTON FAIR 48 43 82 CALM 30.16R $$ MAZ007-012-024-CTZ003-RIZ002-NYZ038-NYZ072-211200- SOUTHERN NEW ENGLAND AND NY CITY SKY/WX TMP DP RH WIND PRES REMARKS BOSTON FAIR 59 47 64 NW8 30.13R WORCESTER FAIR 55 41 59 N9 30.15R NANTUCKET FAIR 59 53 80 N12 30.10R PROVIDENCE FAIR 59 48 67 N8 30.14R HARTFORD FAIR 57 51 80 NW8 30.16R ALBANY FAIR 54 49 83 CALM 30.20R NEW YORK CITY FAIR 63 52 67 N6 30.17R $$ ANZ081-ANZ082-ANZ150-NHZ014-MEZ023>029-211200- COASTAL MARINE OBSERVATIONS STATION/POSITION TIME TEMP WIND PRES WAVE AIR SEA DIR/SP/G HT/PER (UTC) (F) (DEG/KT/KT) (MB) (FT/S) MOUNT DESERT ROC 1100 54 280/ 10/ 10 1018.4R MATINICUS ROCK 1000 53 290/ 10/ 10 1017.7R ISLE OF SHOALS 1000 55 250/ 6/ 6 1019.0R JEFFREYS LEDGE 1036 51 N/A 3/ 8 CASHES LEDGE BUO 1050 56 49 1019.0R 3/ 8 $$ .............KEY.............. WCI - WIND CHILL TC - TEMPERATURE IN CELSIUS VSB - VISIBILITY IN MILES HX - HEAT INDEX FAIR- INDICATES FEW OR NO CLOUDS BELOW 12,000 FT, WITH NO SIGNIFICANT WEATHER AND/OR OBSTRUCTIONS TO VISIBILITY.

USA.gov is the U.S. government's official web portal to all federal, state and local government web resources and services.